Regional Weather Roundup
Issued by NWS

Home | Current Version | Previous Version | Text Only | Print | Product List | Glossary On
Versions: 1 2 3 4 5 6 7 8 9 10 11 12 13 14 15 16 17 18 19 20 21 22 23 24 25 26 27 28 29 30 31 32 33 34 35 36 37 38 39 40 41 42 43 44 45 46 47 48 49 50
000
ASUS45 KABQ 022210
RWRNM
NEW MEXICO REGIONAL WEATHER ROUNDUP
NATIONAL WEATHER SERVICE ALBUQUERQUE NM
400 PM MDT SUN AUG 02 2015

NOTE: "FAIR" MEANS FEW OR NO CLOUDS BELOW 12,000 FEET AGL WITH NO
       SIGNIFICANT WEATHER OR OBSTRUCTIONS TO VISION.

      THIS PRODUCT IS RELEASED AS TWO VERSIONS.  ONE VERSION NEAR
      THE TOP OF THE HOUR CONTAINING PRELIMINARY DATA FROM ALBUQUERQUE
      AND OTHER STATIONS.  A FINAL VERSION WITH ADDITIONAL DATA IS
      ISSUED ABOUT 10 MINUTES AFTER THE HOUR.

NMZ501-503-504-510>518-022300-
NORTHWEST PLATEAU/NORTHCENTRAL MOUNTAINS

CITY           SKY/WX    TMP DP  RH WIND       PRES   REMARKS
FARMINGTON     SUNNY     79  57  46 W21G29    30.09F
LOS ALAMOS     CLOUDY    65  56  72 W8        30.25F
SANTA FE       CLOUDY    75  51  43 N15       30.17R THUNDER
TAOS           CLOUDY    72  46  40 E20G30    30.24R
ANGEL FIRE     CLOUDY    60  52  74 CALM      30.37S

$$
NMZ402-403-502-505>509-022300-
WESTCENTRAL MOUNTAINS/SOUTHWEST MOUNTAINS

CITY           SKY/WX    TMP DP  RH WIND       PRES   REMARKS
GALLUP         PTSUNNY   82  49  31 VRB5      30.15F
GRANTS         CLOUDY    76  56  48 SE6       30.19F
SILVER CITY      N/A     84  50  30 N13       30.13F

$$
NMZ407-409-411-412-022300-
SOUTHERN DESERTS

CITY           SKY/WX    TMP DP  RH WIND       PRES   REMARKS
LORDSBURG      FAIR      88  54  31 N3        30.02F
DEMING         SUNNY     92  52  25 W12G18    30.01F
LAS CRUCES     MOSUNNY   90  53  28 CALM      30.03S
HOLLOMAN AFB   MOSUNNY   96  51  21 VRB6      29.96F
ALAMOGORDO     SUNNY     95  50  21 S3        29.99F
T OR C         CLOUDY    83  56  39 NW6       30.08S

$$
NMZ519>523-022300-
CENTRAL VALLEYS/CENTRAL HIGHLANDS

CITY           SKY/WX    TMP DP  RH WIND       PRES   REMARKS
ALBUQUERQUE    CLOUDY    80  55  42 NW15      30.13R
DOUBLE EAGLE   PTSUNNY   72  57  60 NW6       30.16F
MORIARTY ARPT    N/A     81  50  33 W12G17    30.17S
CLINES CORNERS MOSUNNY   78  54  43 W10       30.21S
BELEN          FAIR      80  53  39 W6        30.12S
SOCORRO        TSTM      65  60  83 NW16G23   30.11F

$$
NMZ524>526-539-540-022300-
SOUTHCENTRAL MOUNTAINS

CITY           SKY/WX    TMP DP  RH WIND       PRES   REMARKS
RUIDOSO          N/A    N/A N/A N/A MISG        N/A

$$
NMZ527>531-022300-
NORTHEAST HIGHLANDS/NORTHEAST PLAINS

CITY           SKY/WX    TMP DP  RH WIND       PRES   REMARKS
RATON          TSTM      66  56  70 E30G43    30.16R
CLAYTON        PTSUNNY   85  60  42 SE7       30.05F

$$
NMZ532>537-022300-
EASTCENTRAL PLAINS

CITY           SKY/WX    TMP DP  RH WIND       PRES   REMARKS
TUCUMCARI      SUNNY     91  59  33 VRB3      29.96F
CANNON AFB     MOSUNNY   90  56  31 W8        29.99F
CLOVIS AIRPORT MOSUNNY   91  59  33 SE9       30.00F

$$
NMZ028-029-538-022300-
SOUTHEAST PLAINS

CITY           SKY/WX    TMP DP  RH WIND       PRES   REMARKS
ROSWELL        CLOUDY    86  59  39 N12       29.97F
ARTESIA        CLOUDY    95  54  24 CALM      29.96F
CARLSBAD       PTSUNNY   96  57  27 S26G32    29.93F HX  95
HOBBS          MOSUNNY   93  57  29 S9        29.95F


$$


USA.gov is the U.S. government's official web portal to all federal, state and local government web resources and services.